{"data":{"norad_id":59730,"intl_designator":"2024-090A","name":"STARLINK-31472","alt_names":[],"object_type":"PAYLOAD","status":"ACTIVE","operator":null,"country":"US","launch_date":"2024-05-13","launch_site_code":"AFETR","launch_vehicle":null,"mission":null,"orbit_class":"UNKNOWN","rcs_meters":null,"size_class":null,"mass_kg":null,"dimensions":null,"purposes":["comms"],"wikipedia_slug":null,"has_3d_model":false,"image_url":null,"decayed_at":null,"tle_current":{"epoch":"2026-09-21T09:56:56.520384Z","epoch_age_seconds":92356,"freshness":"FRESH","line1":"1 59730U 24090A   26264.41454306  .00050635  00000+0  14252-2 0  9990","line2":"2 59730  42.9987 155.5520 0010556 218.6006 141.4095 15.35658879133400","mean_motion":15.35658879,"eccentricity":0.0010556,"inclination_deg":42.9987,"raan_deg":155.552,"arg_perigee_deg":218.6006,"mean_anomaly_deg":141.4095,"bstar":0.0014252,"rev_number":13340,"period_min":93.770824998434,"perigee_km":451.74689885204,"apogee_km":466.18138678476,"semimajor_km":6837.1011428184,"source":"CELESTRAK","updated_at":"2026-09-22T09:00:49.061654Z"}}}